Location: Goettingen
(51.5300°N, 9.9433°E)
Time: 15:14:42
(UTC+02:00)

ISS - Pass Details

Date: 13 October 2017
Orbit: 401 x 408 km, 51.6° (Epoch: 18 October)

Event Time Altitude Azimuth Distance (km) Brightness Sun altitude
Rises 20:05:24 0° 281° (W) 2,326 1.9 -15.5°
Reaches altitude 10° 20:07:57 10° 261° (W) 1,464 0.2 -15.8°
Maximum altitude 20:10:11 17° 218° (SW) 1,105 -1.3 -16.2°
Drops below altitude 10° 20:12:25 10° 174° (S) 1,460 -1.2 -16.5°
Enters shadow 20:12:38 - 172° (S) 1,526 -1.1 -16.6°
